Flag for U.S.A. Weather past 2 weeks in Augusta, Maine, U.S.A.

Now
56 °F

Overcast.


Feels Like: 55 °F
Forecast: 52 / 61 °F
Wind: 5 mph from North

Location: Augusta State Airport

Current Time: Sep 30, 2014 at 9:05:03 PM

Latest Report: Sep 30, 2014 at 7:53 PM


Visibility: 10 mi

Pressure: 30.07 "Hg

Humidity: 81%

Dew point: 50 °F

Location of AugustaLocation

Historic Weather in Augusta — Graph

°F

Augusta temperature yesterday

Maximum temperature yesterday: 69 °F (at 12:53 PM)
Minimum temperature yesterday: 53 °F (at 11:53 PM)
Average temperature yesterday: 61 °F

Past Weeks' High & Low Weather Summary

 TemperatureHumidityPressure
High83 °F (Sep 28, 3:53 PM)100% (Sep 17, 12:53 AM)30.66 "Hg (Sep 17, 12:53 AM)
Low36 °F (Sep 19, 6:53 AM)25% (Sep 19, 4:53 PM)29.47 "Hg (Sep 22, 3:53 AM)
Average57 °F76%30.11 "Hg
* Reported Sep 15 7:53 PM — Sep 30 7:53 PM, Augusta, Weather by CustomWeather, © 2014

Note: Actual official high and low records may vary slightly from our data, if they occured in-between our weather recording intervals... More about our weather records

Advertising

Augusta weather history for previous 24 hours

 ConditionsComfort  
Time TempWeatherWind HumidityBarometerVisibility
7:53 PM
Sep 30
56 °FOvercast.5 mph81%30.07 "Hg10 mi
6:53 PM56 °FOvercast.5 mph81%30.06 "Hg10 mi
5:53 PM56 °FOvercast.5 mph81%30.05 "Hg10 mi
4:53 PM57 °FOvercast.6 mph78%30.04 "Hg10 mi
3:53 PM57 °FMore clouds than sun.8 mph74%30.05 "Hg10 mi
2:53 PM56 °FMostly cloudy.8 mph77%30.05 "Hg10 mi
1:53 PM55 °FOvercast.6 mph77%30.06 "Hg10 mi
1:01 PM54 °FOvercast.8 mph80%30.07 "Hg10 mi
12:53 PM54 °FOvercast.6 mph80%30.07 "Hg10 mi
11:53 AM53 °FLow clouds.7 mph80%30.07 "Hg10 mi
10:53 AM50 °FLow clouds.6 mph89%30.09 "Hg10 mi
9:53 AM49 °FLow clouds.9 mph93%30.09 "Hg10 mi
8:53 AM49 °FLow clouds.9 mph93%30.08 "Hg10 mi
7:53 AM49 °FLow clouds.9 mph93%30.09 "Hg10 mi
6:53 AM49 °FFog.6 mph97%30.08 "Hg6 mi
5:53 AM49 °FFog.8 mph97%30.07 "Hg6 mi
4:53 AM50 °FFog.10 mph93%30.07 "Hg6 mi
3:53 AM50 °FFog.9 mph96%30.06 "Hg5 mi
2:53 AM51 °FFog.7 mph92%30.07 "Hg5 mi
1:53 AM52 °FLow clouds.6 mph89%30.08 "Hg10 mi
12:53 AM53 °FLow clouds.9 mph86%30.07 "Hg10 mi
11:53 PM
Sep 29
53 °FOvercast.7 mph89%30.07 "Hg10 mi
10:53 PM55 °FOvercast.8 mph83%30.09 "Hg10 mi
9:53 PM55 °FOvercast.7 mph83%30.09 "Hg10 mi
Weather by CustomWeather, © 2014

See weather overviewHow to use our weather pages